[[{"header":{"parameterUnit":"m.s-1","parameterCategory":1,"la1":30.2991,"la2":30.254,"lo1":-89.0895,"lo2":-89.0444,"dy":0.0017,"dx":0.0017,"nx":28,"ny":28,"refTime":"2024-06-23T03:00:00:Z","depth":0,"parameterNumber":2,"parameterNumberName":"U-component_of_WINDS"},"data":[0,0,0,0,0,0,0,0,0,0,0,0,0,0,0,0,0,0,0,0,0,0,0,0,0,0,0,0,0,0,0,0,0,0,0,0,0,0,0,0,0,0,0,0,0,0,0,0,0,0,0,0,0,0,0,0,0,0,1.6351,1.6352,0,1.6438,1.6439,1.644,1.6436,1.6434,1.6433,1.6432,1.652,1.6524,1.6527,0,0,0,0,0,0,0,0,0,0,0,0,0,1.618,1.6183,1.6351,1.6352,1.6353,1.6437,1.6439,1.644,1.6436,1.6434,1.6433,1.6431,1.6519,1.6523,1.6528,0,0,0,0,0,0,0,0,0,0,0,0,0,1.6259,1.6184,1.6351,1.6361,1.6363,1.6437,1.6439,1.644,1.6436,1.6434,1.6432,1.6431,1.6518,1.6523,1.6528,1.6597,0,0,1.6544,1.6546,0,0,0,0,0,0,0,0,1.6255,1.6266,1.6359,1.6361,1.6363,1.6424,1.6411,1.6493,1.6437,1.6408,1.6432,1.643,1.649,1.6497,1.6517,1.6602,1.6605,1.6545,1.6548,1.655,1.6552,0,0,0,0,0,0,0,1.6249,1.6262,1.6385,1.636,1.6363,1.6361,1.637,1.6426,1.6458,1.6411,1.6411,1.6421,1.6491,1.6512,1.652,1.6607,1.6544,1.6549,1.6552,1.6554,1.675,1.6752,0,0,0,0,0,0,1.6242,1.6257,1.6382,1.6388,1.6303,1.6366,1.6376,1.6406,1.6458,1.6464,1.6422,1.642,1.6504,1.6513,1.6523,1.6606,1.655,1.6555,1.6558,1.6748,1.675,1.6753,0,0,0,0,0,0,1.6238,1.6253,1.6379,1.6323,1.6339,1.6371,1.6404,1.6409,1.6431,1.6467,1.6472,1.6439,1.6503,1.6515,1.6578,1.6609,1.6557,1.6562,1.6745,1.6749,1.6751,1.6773,0,0,0,0,0,0,1.6233,1.6252,1.6279,1.6323,1.6342,1.6434,1.6406,1.6412,1.644,1.6438,1.6484,1.6489,1.6503,1.6571,1.6584,1.6615,1.6566,1.6743,1.6747,1.6751,1.677,1.6777,1.6782,0,0,0,0,0,1.6227,1.6282,1.628,1.6295,1.6376,1.6436,1.6446,1.646,1.6442,1.6469,1.6492,1.6488,1.6603,1.6577,1.6592,1.6625,1.6741,1.6746,1.675,1.6767,1.6775,1.6782,0,0,0,0,0,0,1.6241,1.6288,1.6287,1.6358,1.6393,1.6435,1.647,1.6469,1.651,1.6506,1.6522,1.6533,1.6596,1.6617,1.6587,1.6694,1.667,1.6678,1.6678,1.6686,1.6692,1.6685,1.6571,0,0,0,0,0,1.6252,1.6296,1.6335,1.6394,1.6412,1.6438,1.6464,1.6472,1.6509,1.6524,1.6551,1.6587,1.6631,1.666,1.6702,1.6773,1.6782,1.6803,1.6809,1.6814,1.6821,1.6858,1.6867,1.6768,1.6768,1.6768,0,0,1.6275,1.6307,1.6334,1.6397,1.6426,1.6471,1.645,1.6499,1.6532,1.6531,1.6592,1.6613,1.6654,1.6721,1.6752,1.674,1.685,1.682,1.6824,1.6828,1.6863,1.6873,1.6881,1.6771,1.677,1.677,0,0,1.6341,1.637,1.6421,1.6449,1.6492,1.6509,1.6521,1.6563,1.6577,1.6638,1.6638,1.6677,1.6754,1.6782,1.6807,1.6881,1.6878,1.6895,1.6927,1.6963,1.6971,1.6978,1.7003,1.7012,1.6901,1.6901,1.6901,0,1.6365,1.6433,1.6448,1.6496,1.6524,1.6524,1.6575,1.6602,1.6656,1.6675,1.6662,1.6756,1.6784,1.6856,1.6874,1.6895,1.6908,1.689,1.6969,1.6976,1.6983,1.7007,1.7016,1.6903,1.6903,1.6903,1.6902,0,1.6459,1.6507,1.6543,1.6595,1.6626,1.6676,1.6697,1.6727,1.6732,1.675,1.6811,1.6844,1.6893,1.6911,1.6917,1.6984,1.6975,1.6965,1.6941,1.6994,1.7016,1.7026,1.6905,1.6905,1.6904,1.6904,0,0,1.6536,1.6595,1.6608,1.663,1.6677,1.6713,1.6762,1.681,1.6834,1.6872,1.6912,1.6976,1.6967,1.6994,1.7003,1.7035,1.709,1.7021,1.7022,1.7031,1.7164,1.717,1.7181,1.7088,1.709,1.7092,1.716,0,1.6606,1.6693,1.6707,1.6784,1.6826,1.6827,1.6869,1.6902,1.692,1.6958,1.6978,1.7022,1.7007,1.7023,1.7055,1.7076,1.7116,1.7072,1.7125,1.7127,1.7114,1.7193,1.72,1.7263,1.7169,1.7171,1.7172,0,1.6698,1.6737,1.6818,1.6857,1.6875,1.6914,1.6957,1.6994,1.7031,1.7041,1.7071,1.7076,1.7126,1.71,1.7168,1.7138,1.716,1.7174,1.7177,1.7181,1.7152,1.7198,1.7284,1.7292,1.7186,1.7185,1.7184,0,1.6744,1.6817,1.6874,1.6894,1.6941,1.6968,1.6989,1.7023,1.705,1.7088,1.7106,1.7149,1.7173,1.7206,1.7221,1.7201,1.7288,1.7264,1.7297,1.7296,1.7314,1.7313,1.7403,1.7331,1.7331,1.7331,1.7331,0,1.6819,1.6868,1.6895,1.693,1.6985,1.7,1.7053,1.7073,1.7104,1.7142,1.7145,1.7181,1.72,1.7238,1.7251,1.7304,1.7315,1.7324,1.7327,1.7323,1.7322,1.7338,1.7333,1.7333,1.7333,1.7332,1.7332,0,1.688,1.69,1.6962,1.7001,1.7012,1.705,1.7084,1.7117,1.7134,1.7183,1.7195,1.7221,1.7267,1.7285,1.7341,1.735,1.741,1.7411,1.7398,1.7399,1.743,1.7426,1.7532,1.7546,1.7467,1.7467,1.7468,0,1.6926,1.6963,1.7006,1.7032,1.7054,1.7095,1.7123,1.7139,1.7167,1.721,1.7238,1.7283,1.732,1.7392,1.7416,1.7458,1.7458,1.7492,1.7464,1.7459,1.7456,1.7453,1.7456,1.7497,1.7498,1.7498,1.7499,0,1.7005,1.7012,1.7052,1.7094,1.7127,1.7161,1.7194,1.7215,1.7236,1.7267,1.7313,1.7341,1.7398,1.7442,1.7485,1.7506,1.7505,1.7508,1.7517,1.7513,1.7504,1.7508,1.741,1.7505,1.7504,1.7504,1.7503,1.7503,1.7058,1.7091,1.7126,1.7169,1.7196,1.7226,1.7259,1.728,1.7319,1.7366,1.7373,1.7421,1.7455,1.7513,1.7536,1.7573,1.7565,1.7579,1.7582,1.7585,1.7586,1.7499,1.7581,1.7581,1.7581,1.7581,1.7581,0,1.7136,1.7158,1.7198,1.7244,1.7278,1.7275,1.7311,1.7339,1.7382,1.7414,1.745,1.7501,1.7544,1.7571,1.7613,1.7638,1.7639,1.7649,1.7646,1.7651,1.7593,1.7579,1.7647,1.7647,1.7647,1.7647,1.7647,1.7647,1.718,1.7235,1.7247,1.7314,1.7336,1.7383,1.7404,1.7432,1.7457,1.7515,1.755,1.7567,1.7597,1.7641,1.768,1.7686,1.7701,1.7711,1.7717,1.7662,1.7655,1.7649,1.7636,1.7715,1.7715,1.7772,1.7773,1.7773]},{"header":{"parameterUnit":"m.s-1","parameterCategory":1,"la1":30.2991,"la2":30.254,"lo1":-89.0895,"lo2":-89.0444,"dy":0.0017,"dx":0.0017,"nx":28,"ny":28,"refTime":"2024-06-23T03:00:00:Z","depth":0,"parameterNumber":3,"parameterNumberName":"V-component_of_WINDS"},"data":[0,0,0,0,0,0,0,0,0,0,0,0,0,0,0,0,0,0,0,0,0,0,0,0,0,0,0,0,0,0,0,0,0,0,0,0,0,0,0,0,0,0,0,0,0,0,0,0,0,0,0,0,0,0,0,0,0,0,3.5233,3.5234,0,3.5295,3.5295,3.5296,3.5262,3.526,3.5258,3.5257,3.5315,3.5318,3.5321,0,0,0,0,0,0,0,0,0,0,0,0,0,3.5081,3.5084,3.5233,3.5234,3.5235,3.5294,3.5295,3.5296,3.5262,3.526,3.5258,3.5256,3.5314,3.5318,3.5321,0,0,0,0,0,0,0,0,0,0,0,0,0,3.5145,3.5085,3.5233,3.5225,3.5225,3.5294,3.5295,3.5296,3.5262,3.526,3.5257,3.5255,3.5313,3.5317,3.5322,3.5401,0,0,3.5336,3.5338,0,0,0,0,0,0,0,0,3.5142,3.5151,3.5225,3.5226,3.5226,3.5268,3.5263,3.5331,3.5263,3.5248,3.5257,3.5254,3.5301,3.5307,3.5323,3.5404,3.5406,3.5337,3.5339,3.5341,3.5343,0,0,0,0,0,0,0,3.5137,3.5148,3.5257,3.5227,3.5227,3.5217,3.5223,3.5276,3.5288,3.5249,3.5247,3.5255,3.5301,3.5319,3.5325,3.5407,3.5336,3.5341,3.5344,3.5345,3.5554,3.5557,0,0,0,0,0,0,3.5134,3.5144,3.5255,3.5259,3.5177,3.5221,3.5228,3.5257,3.5287,3.5289,3.5257,3.5253,3.5312,3.5319,3.5326,3.5421,3.5341,3.5346,3.5348,3.5551,3.5555,3.5558,0,0,0,0,0,0,3.5131,3.5144,3.5253,3.5201,3.5214,3.5227,3.5259,3.5259,3.5278,3.5293,3.5295,3.5274,3.5311,3.532,3.5383,3.5422,3.5348,3.5352,3.5548,3.5552,3.5556,3.561,0,0,0,0,0,0,3.5127,3.5143,3.5175,3.5202,3.5217,3.531,3.5261,3.5262,3.5287,3.5282,3.5309,3.5311,3.5309,3.5376,3.5388,3.5427,3.5356,3.5545,3.555,3.5555,3.5605,3.5616,3.5625,0,0,0,0,0,3.5121,3.5187,3.5177,3.519,3.5257,3.5312,3.5321,3.5318,3.529,3.5321,3.533,3.5311,3.5416,3.5383,3.5395,3.5437,3.5542,3.5549,3.5555,3.56,3.5613,3.5625,0,0,0,0,0,0,3.5162,3.519,3.5179,3.5256,3.5282,3.5307,3.5346,3.5332,3.5366,3.536,3.5354,3.5361,3.5426,3.5438,3.54,3.5515,3.5474,3.5483,3.5505,3.5518,3.5527,3.5523,3.536,0,0,0,0,0,3.5181,3.5225,3.5246,3.5311,3.5325,3.5333,3.5357,3.5353,3.5379,3.539,3.5404,3.5429,3.5467,3.5493,3.5529,3.5606,3.5611,3.5641,3.5651,3.5659,3.5667,3.5707,3.572,3.5578,3.5578,3.5578,0,0,3.5218,3.5239,3.5267,3.532,3.534,3.5384,3.5343,3.5392,3.5424,3.5397,3.5458,3.5469,3.5496,3.5566,3.5597,3.5577,3.5707,3.5667,3.5673,3.5677,3.5715,3.5728,3.574,3.5582,3.5581,3.5581,0,0,3.531,3.533,3.5387,3.5408,3.5439,3.5443,3.5457,3.5483,3.549,3.5551,3.5532,3.5569,3.5636,3.5656,3.5674,3.5772,3.5755,3.5784,3.5836,3.5875,3.5887,3.5896,3.5931,3.5943,3.5792,3.5792,3.5792,0,3.5352,3.542,3.5417,3.5468,3.5491,3.547,3.5526,3.5545,3.5586,3.5602,3.5579,3.5663,3.5679,3.5753,3.5777,3.5793,3.5807,3.5781,3.5885,3.5895,3.5904,3.5937,3.595,3.5795,3.5795,3.5794,3.5794,0,3.547,3.5517,3.5559,3.56,3.5628,3.5681,3.5685,3.5713,3.5706,3.5712,3.5774,3.5793,3.5833,3.585,3.5843,3.5923,3.5909,3.5886,3.5846,3.5921,3.5952,3.5964,3.58,3.5799,3.5798,3.5797,0,0,3.559,3.5629,3.5644,3.5662,3.5695,3.573,3.5781,3.5821,3.5845,3.5873,3.5915,3.5971,3.595,3.5972,3.5967,3.6001,3.6077,3.5974,3.5974,3.5992,3.6164,3.6182,3.6196,3.6065,3.6068,3.6069,3.6162,0,3.5683,3.5775,3.5773,3.5857,3.59,3.5879,3.5924,3.5947,3.5954,3.599,3.5996,3.6037,3.6006,3.6019,3.6052,3.6061,3.6111,3.6054,3.6103,3.6104,3.6097,3.6212,3.6231,3.6317,3.6174,3.6176,3.6177,0,3.5804,3.5838,3.5927,3.5952,3.597,3.601,3.6046,3.6081,3.6106,3.6109,3.6133,3.6122,3.6172,3.613,3.6197,3.6158,3.6178,3.6185,3.6188,3.6193,3.6146,3.622,3.6345,3.6358,3.6196,3.6195,3.6193,0,3.5882,3.595,3.6012,3.6028,3.6059,3.6087,3.6101,3.6124,3.6148,3.6179,3.6194,3.623,3.6249,3.6276,3.6274,3.6244,3.6343,3.6301,3.6345,3.6345,3.6367,3.6366,3.6497,3.638,3.638,3.6379,3.6379,0,3.5987,3.6042,3.6047,3.6085,3.6145,3.6142,3.6201,3.6212,3.6232,3.6271,3.6254,3.629,3.6286,3.6322,3.632,3.6376,3.6385,3.6387,3.6386,3.6389,3.6389,3.6402,3.6396,3.6383,3.6382,3.6381,3.6381,0,3.6084,3.609,3.6156,3.618,3.6188,3.6231,3.6251,3.6286,3.6291,3.6339,3.635,3.6358,3.6399,3.64,3.6447,3.6446,3.6514,3.6506,3.6506,3.6504,3.6549,3.6544,3.6693,3.6712,3.6583,3.6584,3.6585,0,3.6151,3.6193,3.6222,3.6247,3.6263,3.6304,3.6328,3.6326,3.6352,3.6383,3.6414,3.6454,3.6485,3.6551,3.656,3.6595,3.6588,3.6637,3.6593,3.6594,3.6588,3.6586,3.6589,3.6646,3.6648,3.6649,3.665,0,3.6268,3.6268,3.6305,3.6344,3.6374,3.6403,3.643,3.6451,3.6451,3.6481,3.6523,3.6548,3.6596,3.6635,3.6669,3.668,3.6665,3.6664,3.6676,3.6679,3.6677,3.6678,3.653,3.666,3.6659,3.6659,3.6658,3.6658,3.6351,3.6388,3.6414,3.6455,3.6475,3.6501,3.6535,3.6545,3.6581,3.6621,3.6616,3.6663,3.6686,3.673,3.6745,3.678,3.6763,3.678,3.6785,3.6789,3.6794,3.6672,3.6786,3.6786,3.6785,3.6785,3.6785,0,3.6467,3.6483,3.6521,3.656,3.6592,3.6576,3.6605,3.6632,3.6675,3.6698,3.6729,3.6777,3.6815,3.6826,3.6862,3.6888,3.6882,3.6898,3.6895,3.6898,3.6807,3.6793,3.6902,3.6902,3.6902,3.6902,3.6902,3.6902,3.6531,3.6592,3.6595,3.6665,3.6679,3.6727,3.6744,3.6767,3.6785,3.684,3.6872,3.688,3.6898,3.6935,3.6968,3.697,3.6984,3.7002,3.7002,3.6917,3.6905,3.6894,3.688,3.7005,3.7006,3.709,3.709,3.7091]}]]